Weather History for KDIK - November, 2013

Change the Weather History Date:

Saturday, November 9, 2013

  Actual Average Record
Temperature  
Mean Temperature 28 °F 33 °F  
Max Temperature 37 °F 44 °F 72 °F (1930)
Min Temperature 19 °F 22 °F -13 °F (1945)
Degree Days  
Heating Degree Days 37 32  
Month to date heating degree days 269 272  
Since 1 July heating degree days 1150 1283  
Cooling Degree Days 0 0  
Month to date cooling degree days 0 0  
Year to date cooling degree days 386 419  
Moisture  
Dew Point 22 °F    
Average Humidity 71    
Maximum Humidity 89    
Minimum Humidity 52    
Precipitation  
Precipitation 0.00 in 0.03 in 0.41 in (1978)
Month to date precipitation 0.03 0.23  
Year to date precipitation 20.97 15.22  
Sea Level Pressure  
Sea Level Pressure 30.14 in    
Wind  
Wind Speed 15 mph (WNW)    
Max Wind Speed 29 mph    
Max Gust Speed 37 mph    
Visibility 10 miles    
Events      
T = Trace of Precipitation, MM = Missing Value Source: NWS Daily Summary

Daily Weather History Graph

Daily Weather History Graph

Search for Another Location

Airport or City:

Trip Planner

Search our weather history database for the weather conditions in past years. The results will help you decide how hot, cold, wet, or windy it might be!

Date:

Astronomy

Nov. 09, 2013 Rise Set
Actual Time 6:45 AM MST 4:23 PM MST
Civil Twilight 6:13 AM MST 4:56 PM MST
Nautical Twilight 5:36 AM MST 5:32 PM MST
Astronomical Twilight 5:01 AM MST 6:08 PM MST
Moon 12:19 PM MST (11/9) 11:02 PM MST (11/9)
Length of Visible Light 10h 43m
Length of Day
9h 38m
Waxing Crescent, 45% of the Moon is Illuminated
Nov 9
Waxing Crescent
Nov 9
First Quarter
Nov 17
Full
Nov 25
Last Quarter
Dec 2
New

Hourly Weather History & Observations

Time (MST) Temp. Windchill Dew Point Humidity Pressure Visibility Wind Dir Wind Speed Gust Speed Precip Events Conditions
12:39 AM 34.0 °F 25.0 °F 30.0 °F 85% 29.87 in 10.0 mi WNW 12.7 mph - N/A   Mostly Cloudy
12:56 AM 34.0 °F 24.6 °F 30.0 °F 85% 29.91 in 10.0 mi WNW 13.8 mph - N/A   Overcast
1:56 AM 35.1 °F 25.5 °F 30.0 °F 82% 29.94 in 10.0 mi WNW 15.0 mph - N/A   Overcast
2:51 AM 35.6 °F 25.9 °F 28.4 °F 75% 29.92 in 10.0 mi WNW 16.1 mph 28.8 mph N/A   Overcast
2:56 AM 35.1 °F 24.1 °F 28.9 °F 78% 29.97 in 10.0 mi WNW 19.6 mph 24.2 mph N/A   Overcast
3:30 AM 34.0 °F 21.5 °F 27.0 °F 75% 29.94 in 10.0 mi NW 24.2 mph 31.1 mph N/A   Overcast
3:52 AM 33.8 °F 21.3 °F 24.8 °F 70% 29.95 in 10.0 mi NW 24.2 mph 32.2 mph N/A   Overcast
3:56 AM 33.1 °F 20.9 °F 24.1 °F 70% 30.01 in 10.0 mi WNW 21.9 mph 29.9 mph N/A   Overcast
4:56 AM 34.0 °F 21.3 °F 25.0 °F 70% 30.04 in 10.0 mi WNW 25.3 mph 34.5 mph N/A   Overcast
5:42 AM 32.0 °F 19.2 °F 21.0 °F 64% 30.01 in 10.0 mi WNW 23.0 mph 32.2 mph N/A   Mostly Cloudy
5:56 AM 32.0 °F 20.1 °F 21.0 °F 64% 30.07 in 10.0 mi WNW 19.6 mph - N/A   Overcast
6:06 AM 32.0 °F 22.1 °F 21.0 °F 64% 30.02 in 10.0 mi WNW 13.8 mph - N/A   Overcast
6:56 AM 33.1 °F 21.9 °F 23.0 °F 66% 30.10 in 10.0 mi WNW 18.4 mph - N/A   Overcast
7:56 AM 32.0 °F 20.1 °F 21.9 °F 66% 30.15 in 10.0 mi WNW 19.6 mph - N/A   Overcast
8:56 AM 33.1 °F 20.9 °F 21.0 °F 61% 30.18 in 10.0 mi NW 21.9 mph 27.6 mph N/A   Overcast
9:56 AM 34.0 °F 22.1 °F 21.0 °F 59% 30.19 in 10.0 mi NW 21.9 mph 29.9 mph N/A   Overcast
10:56 AM 35.1 °F 24.1 °F 21.9 °F 59% 30.22 in 10.0 mi WNW 19.6 mph 29.9 mph N/A   Mostly Cloudy
11:56 AM 35.1 °F 24.5 °F 21.0 °F 57% 30.24 in 10.0 mi WNW 18.4 mph 28.8 mph N/A   Mostly Cloudy
12:40 PM 36.0 °F 25.3 °F 21.9 °F 57% 30.16 in 10.0 mi WNW 19.6 mph 28.8 mph N/A   Scattered Clouds
12:56 PM 36.0 °F 25.6 °F 21.0 °F 55% 30.24 in 10.0 mi WNW 18.4 mph 27.6 mph N/A   Clear
1:56 PM 37.0 °F 26.7 °F 21.0 °F 52% 30.25 in 10.0 mi WNW 19.6 mph - N/A   Clear
2:56 PM 36.0 °F 26.7 °F 21.0 °F 55% 30.26 in 10.0 mi WNW 15.0 mph - N/A   Clear
3:56 PM 33.1 °F 25.5 °F 21.0 °F 61% 30.29 in 10.0 mi WNW 9.2 mph - N/A   Clear
4:56 PM 25.0 °F 16.3 °F 17.1 °F 72% 30.31 in 10.0 mi West 8.1 mph - N/A   Clear
5:56 PM 24.1 °F 17.0 °F 18.0 °F 77% 30.33 in 10.0 mi West 5.8 mph - N/A   Clear
6:56 PM 19.9 °F 13.4 °F 15.1 °F 81% 30.33 in 10.0 mi South 4.6 mph - N/A   Clear
7:56 PM 19.9 °F 12.1 °F 16.0 °F 85% 30.32 in 10.0 mi South 5.8 mph - N/A   Clear
8:56 PM 19.9 °F 10.1 °F 15.1 °F 81% 30.31 in 10.0 mi South 8.1 mph - N/A   Clear
9:56 PM 21.0 °F 11.4 °F 17.1 °F 85% 30.31 in 10.0 mi SSW 8.1 mph - N/A   Clear
10:56 PM 21.9 °F 11.0 °F 16.0 °F 78% 30.29 in 10.0 mi South 10.4 mph - N/A   Clear
11:56 PM 23.0 °F 13.9 °F 18.0 °F 81% 30.28 in 10.0 mi South 8.1 mph - N/A   Clear